Regional Weather Roundup
Issued by NWS

Home | Current Version | Previous Version | Text Only | Print | Product List | Glossary Off
Versions: 1 2 3 4 5 6 7 8 9 10 11 12 13 14 15 16 17 18 19 20 21 22 23 24 25 26 27 28 29 30 31 32 33 34 35 36 37 38 39 40 41 42 43 44 45 46 47 48 49 50

000
ASUS45 KPSR 012210
RWRAZ

ARIZONA HOURLY REGIONAL WEATHER ROUNDUP
NATIONAL WEATHER SERVICE PHOENIX AZ
300 PM MST TUE SEP 01 2015

NOTE: FAIR INDICATES FEW OR NO CLOUDS BELOW 12,000 FEET WITH NO
SIGNIFICANT WEATHER AND/OR OBSTRUCTIONS TO VISIBILITY.

AZZ001>003-036-012300-
NORTHWEST ARIZONA

CITY           SKY/WX    TMP DP  RH WIND       PRES   REMARKS
BULLHEAD CITY  SUNNY    102  54  19 SW15G21   29.78F HX 100
KINGMAN        SUNNY     93  47  20 SW17G25   29.98F
$$

AZZ004>008-015-016-018-012300-
NORTH CENTRAL ARIZONA

CITY           SKY/WX    TMP DP  RH WIND       PRES   REMARKS
GRAND CANYON   PTSUNNY   79  46  31 VRB7      30.22F
WILLIAMS       MOSUNNY   79  45  29 SW14G24   30.28S
PRESCOTT       PTSUNNY   82  55  39 E13G20    30.11F
FLAGSTAFF      PTSUNNY   71  49  45 SW13      30.26F
PAYSON         PTSUNNY   82  52  34 VRB6G15   30.15F
PAGE           MOSUNNY   87  52  29 N10       30.03F
$$

AZZ009>014-017-012300-
NORTHEAST ARIZONA

CITY           SKY/WX    TMP DP  RH WIND       PRES   REMARKS
WINSLOW        MOSUNNY   85  54  34 CALM      30.12S
SAINT JOHNS    PTSUNNY   82  47  29 SE8       30.16F
WINDOW ROCK    PTSUNNY   82  44  26 SW12      30.23F
SHOW LOW       CLOUDY    75  50  41 S5        30.22F
$$

AZZ023-012300-
GREATER PHOENIX AREA

CITY           SKY/WX    TMP DP  RH WIND       PRES   REMARKS
PHOENIX        PTSUNNY   97  62  31 E7        29.83F
BUCKEYE        MOSUNNY   99  55  23 CALM      29.83F
GLENDALE       PTSUNNY   99  59  26 E7        29.85F
LUKE AFB       MOSUNNY   98  61  29 SE7       29.83F
DEER VALLEY    PTSUNNY   94  59  31 VRB3      29.86F
SCOTTSDALE     PTSUNNY   95  60  31 S6        29.88F
MESA-FALCON    PTSUNNY   99  59  26 S7        29.86F
MESA-GATEWAY   MOSUNNY   97  61  30 SE3       29.88F
CHANDLER       PTSUNNY   97  63  32 VRB6      29.85F
$$

AZZ027-028-012300-
SOUTHWEST MARICOPA COUNTY AND PINAL COUNTY

CITY           SKY/WX    TMP DP  RH WIND       PRES   REMARKS
CASA GRANDE    SUNNY     95  63  34 CALM      29.86F
GILA BEND      PTSUNNY  102  50  17 VRB5      29.79F
$$

AZZ503-504-507>509-012300-
SOUTHEAST ARIZONA

CITY           SKY/WX    TMP DP  RH WIND       PRES   REMARKS
TUCSON         SUNNY     94  56  27 CALM      29.95F
DAVIS-MONTHAN  SUNNY     93  58  30 VRB1      29.94F
RYAN FIELD     SUNNY     95  61  31 NW5       29.94F
NOGALES        PTSUNNY   89  55  31 VRB6      30.05F
SIERRA VISTA   PTSUNNY   87  48  26 S5        30.11F
DOUGLAS        MOSUNNY   89  50  26 VRB6      30.06F
SAFFORD        PTSUNNY   87  59  38 CALM      30.00F
$$

AZZ020-021-025-026-031-012300-
SOUTHWEST ARIZONA

CITY           SKY/WX    TMP DP  RH WIND       PRES   REMARKS
YUMA           PTSUNNY  101  59  24 SW15      29.76F HX 101
$$

CAZ031-033-041-043-047-048-061-012300-
SOUTHERN CALIFORNIA

CITY           SKY/WX    TMP DP  RH WIND       PRES   REMARKS
DOWNTOWN L.A.  MOSUNNY   79  61  53 VRB3      29.88S
L.A. AIRPORT   PTSUNNY   74  63  68 W16       29.90F
SAN DIEGO      CLOUDY    74  61  63 W6        29.93F
BURBANK        MOSUNNY   83  59  44 S9        29.88F
ONTARIO        PTSUNNY   87  51  28 VRB6      29.88F
RIVERSIDE      PTSUNNY   88  56  33 VRB6      29.87F
PALM SPRINGS   MOSUNNY  100  66  32 E8        29.79F HX 104
EL CENTRO NAS  PTSUNNY  101  64  29 VRB5      29.74F HX 104
IMPERIAL       SUNNY    102  62  26 SE7       29.72F HX 104
BLYTHE         MOSUNNY  100  62  28 VRB3      29.76F HX 101
NEEDLES        MOSUNNY  103  52  18 SW12      29.80F HX 100
$$

NVZ020-UTZ003-012300-
SOUTHERN NEVADA-UTAH

CITY           SKY/WX    TMP DP  RH WIND       PRES   REMARKS
LAS VEGAS      MOSUNNY   97  51  21 S10G20    29.81F
SALT LAKE CITY PTSUNNY   89  38  16 S18G28    29.90F
$$

NMZ009-TXZ055-012300-
NEW MEXICO-WEST TEXAS

CITY           SKY/WX    TMP DP  RH WIND       PRES   REMARKS
ALBUQUERQUE    PTSUNNY   85  44  23 W7        30.13F
EL PASO        MOSUNNY   96  40  14 SW6       30.00F
$$


........................KEY........................
SKY/WX - SKY CONDITION/WEATHER
TMP    - TEMPERATURE IN FAHRENHEIT
DP     - DEW POINT IN FAHRENHEIT
RH     - RELATIVE HUMIDITY IN PERCENT
WIND   - DIRECTION AND SPEED IN MILES PER HOUR (MPH)
VRB    - VARIABLE WIND DIRECTION
PRES   - MEAN SEA LEVEL PRESSURE IN INCHES OF MERCURY
         F - FALLING PRESSURE   R - RISING PRESSURE
         S - STEADY PRESSURE
VSB    - VISIBILITY IN MILES
HX     - HEAT INDEX IN FAHRENHEIT
WCI    - WIND CHILL INDEX IN FAHRENHEIT
TC     - TEMPERATURE IN CELSIUS WHICH IS ALSO KNOWN AS
         TEMPERATURE IN CENTIGRADE
AFB    - AIR FORCE BASE
         LUKE AFB IS LUKE AIR FORCE BASE
         DAVIS-MONTHAN IS DAVIS-MONTHAN AIR FORCE BASE
NAS    - NAVAL AIR STATION
         EL CENTRO NAS IS EL CENTRO NAVAL AIR STATION
N/A    - NOT AVAILABLE



USA.gov is the U.S. government's official web portal to all federal, state and local government web resources and services.